| time (UTC) | temp F | wind direction | speed knots | gust knots | rain 1hr in | rain 24hr in | rain mn in | humidity % | barometer mb |
| 20260503004552 | 32 | 282 | 15.6 | 21.7 | 0.00 | 0.00 | 0.00 | 95 | 1011.7 |
| 20260503003149 | 33 | 288 | 15.6 | 20.9 | 0.00 | 0.00 | 0.00 | 94 | 1011.9 |
| 20260503001547 | 33 | 282 | 15.6 | 21.7 | 0.00 | 0.00 | 0.00 | 94 | 1012.0 |
| 20260503000044 | 33 | 296 | 17.4 | 22.6 | 0.00 | 0.00 | 0.00 | 94 | 1012.0 |
| 20260502234550 | 33 | 278 | 19.1 | 25.2 | 0.00 | 0.00 | 0.00 | 93 | 1011.9 |
| 20260502233144 | 33 | 285 | 17.4 | 21.7 | 0.00 | 0.00 | 0.00 | 94 | 1011.8 |
| 20260502231543 | 33 | 286 | 17.4 | 22.6 | 0.00 | 0.00 | 0.00 | 93 | 1012.1 |
| 20260502230039 | 33 | 285 | 13.0 | 18.2 | 0.00 | 0.00 | 0.00 | 93 | 1012.5 |
| 20260502224538 | 33 | 285 | 14.8 | 20.0 | 0.00 | 0.00 | 0.00 | 91 | 1012.3 |
| 20260502223137 | 33 | 293 | 15.6 | 19.1 | 0.00 | 0.00 | 0.00 | 92 | 1012.5 |
| 20260502221540 | 33 | 295 | 12.2 | 16.5 | 0.00 | 0.00 | 0.00 | 93 | 1012.7 |
| 20260502220045 | 33 | 280 | 12.2 | 16.5 | 0.00 | 0.00 | 0.00 | 93 | 1012.9 |
| 20260502214535 | 33 | 286 | 10.4 | 22.6 | 0.00 | 0.00 | 0.00 | 93 | 1012.9 |
| 20260502213133 | 33 | 264 | 16.5 | 20.9 | 0.00 | 0.00 | 0.00 | 92 | 1012.8 |
| 20260502211532 | 33 | 288 | 18.2 | 26.1 | 0.00 | 0.00 | 0.00 | 92 | 1013.2 |
| 20260502210031 | 33 | 276 | 12.2 | 20.0 | 0.00 | 0.00 | 0.00 | 94 | 1013.3 |
| 20260502204530 | 34 | 269 | 13.0 | 21.7 | 0.00 | 0.00 | 0.00 | 89 | 1013.2 |
| 20260502203130 | 34 | 284 | 12.2 | 16.5 | 0.00 | 0.00 | 0.00 | 87 | 1013.3 |
| 20260502201537 | 34 | 288 | 14.8 | 18.2 | 0.00 | 0.00 | 0.00 | 86 | 1013.4 |
| 20260502200027 | 34 | 272 | 13.0 | 19.1 | 0.00 | 0.00 | 0.00 | 84 | 1013.7 |
| 20260502194536 | 34 | 275 | 12.2 | 19.1 | 0.00 | 0.00 | 0.00 | 84 | 1013.9 |
| 20260502193125 | 35 | 264 | 13.0 | 18.2 | 0.00 | 0.00 | 0.00 | 77 | 1014.1 |
| 20260502191533 | 34 | 282 | 14.8 | 21.7 | 0.00 | 0.00 | 0.00 | 83 | 1014.2 |
| 20260502190023 | 35 | 281 | 15.6 | 23.5 | 0.00 | 0.00 | 0.00 | 86 | 1014.4 |
| 20260502184532 | 34 | 269 | 15.6 | 20.9 | 0.00 | 0.00 | 0.00 | 91 | 1014.6 |
| 20260502183123 | 34 | 296 | 13.9 | 21.7 | 0.00 | 0.00 | 0.00 | 87 | 1014.6 |
| 20260502181518 | 34 | 266 | 13.9 | 19.1 | 0.00 | 0.00 | 0.00 | 85 | 1014.7 |
| 20260502163112 | 33 | 266 | 10.4 | 15.6 | 0.00 | 0.00 | 0.00 | 85 | 1015.8 |
| 20260502161509 | 32 | 272 | 14.8 | 21.7 | 0.00 | 0.00 | 0.00 | 86 | 1016.2 |
| 20260502151608 | 32 | 268 | 12.2 | 19.1 | 0.00 | 0.00 | 0.00 | 85 | 1017.2 |
| 20260502123038 | 31 | 267 | 7.8 | 13.0 | 0.00 | 0.00 | 0.00 | 70 | 1018.8 |
| 20260502121539 | 31 | 267 | 7.0 | 10.4 | 0.00 | 0.00 | 0.00 | 68 | 1018.9 |
| 20260502114539 | 30 | 259 | 5.2 | 9.6 | 0.00 | 0.00 | 0.00 | 70 | 1019.1 |
| 20260502113034 | 30 | 266 | 3.5 | 7.8 | 0.00 | 0.00 | 0.00 | 71 | 1019.4 |
| 20260502111533 | 29 | 274 | 2.6 | 6.1 | 0.00 | 0.00 | 0.00 | 71 | 1019.4 |
| 20260502110034 | 29 | 250 | 4.3 | 7.8 | 0.00 | 0.00 | 0.00 | 68 | 1019.6 |
| 20260502104530 | 29 | 288 | 4.3 | 7.0 | 0.00 | 0.00 | 0.00 | 68 | 1019.6 |
| 20260502103029 | 30 | 238 | 1.7 | 5.2 | 0.00 | 0.00 | 0.00 | 68 | 1019.8 |
| 20260502101528 | 30 | 153 | 1.7 | 3.5 | 0.00 | 0.00 | 0.00 | 70 | 1019.9 |
| 20260502091522 | 28 | 141 | 0.0 | 2.6 | 0.00 | 0.00 | 0.00 | 72 | 1020.1 |
| 20260502071509 | 23 | 141 | 0.0 | 2.6 | 0.00 | 0.00 | 0.00 | 82 | 1020.4 |
| 20260502070009 | 22 | 141 | 0.0 | 0.9 | 0.00 | 0.00 | 0.00 | 84 | 1020.4 |
| 20260502064514 | 21 | 141 | 1.7 | 2.6 | 0.00 | 0.00 | 0.00 | 85 | 1020.5 |
| 20260502063006 | 21 | 141 | 2.6 | 4.3 | 0.00 | 0.00 | 0.00 | 86 | 1020.5 |
| 20260502061502 | 20 | 141 | 0.0 | 2.6 | 0.00 | 0.00 | 0.00 | 87 | 1020.5 |
| 20260502060001 | 20 | 141 | 0.0 | 0.9 | 0.00 | 0.00 | 0.00 | 88 | 1020.6 |
| 20260502054601 | 20 | 141 | 0.9 | 4.3 | 0.00 | 0.00 | 0.00 | 88 | 1020.5 |
| 20260502053104 | 19 | 141 | 0.9 | 4.3 | 0.00 | 0.00 | 0.00 | 90 | 1020.6 |
| 20260502051602 | 19 | 141 | 0.0 | 0.0 | 0.00 | 0.00 | 0.00 | 91 | 1020.6 |
| 20260502050057 | 19 | 141 | 0.0 | 0.9 | 0.00 | 0.00 | 0.00 | 89 | 1020.4 |
| 20260502044557 | 19 | 141 | 0.0 | 1.7 | 0.00 | 0.00 | 0.00 | 90 | 1020.4 |
| 20260502043104 | 19 | 141 | 0.0 | 1.7 | 0.00 | 0.00 | 0.00 | 91 | 1020.5 |
| 20260502041553 | 20 | 141 | 0.9 | 2.6 | 0.00 | 0.00 | 0.00 | 90 | 1020.5 |
| 20260502040051 | 19 | 141 | 0.0 | 2.6 | 0.00 | 0.00 | 0.00 | 91 | 1020.5 |
| 20260502034550 | 19 | 141 | 0.0 | 0.9 | 0.00 | 0.00 | 0.00 | 91 | 1020.5 |
| 20260502033048 | 20 | 141 | 0.0 | 1.7 | 0.00 | 0.00 | 0.00 | 91 | 1020.5 |
| 20260502031546 | 19 | 141 | 0.0 | 1.7 | 0.00 | 0.00 | 0.00 | 90 | 1020.5 |
| 20260502030044 | 19 | 141 | 0.0 | 1.7 | 0.00 | 0.00 | 0.00 | 88 | 1020.4 |
| 20260502024543 | 20 | 141 | 1.7 | 4.3 | 0.00 | 0.00 | 0.00 | 88 | 1020.4 |
| 20260502023040 | 21 | 141 | 0.9 | 4.3 | 0.00 | 0.00 | 0.00 | 89 | 1020.3 |
| 20260502021540 | 21 | 141 | 1.7 | 2.6 | 0.00 | 0.00 | 0.00 | 90 | 1020.3 |
| 20260502020042 | 20 | 141 | 0.0 | 3.5 | 0.00 | 0.00 | 0.00 | 88 | 1020.5 |
| 20260502014549 | 21 | 153 | 1.7 | 5.2 | 0.00 | 0.00 | 0.00 | 88 | 1020.5 |
| 20260502013031 | 21 | 214 | 1.7 | 6.1 | 0.00 | 0.00 | 0.00 | 86 | 1020.4 |
| 20260502011533 | 22 | 347 | 2.6 | 4.3 | 0.00 | 0.00 | 0.00 | 86 | 1020.2 |